Flight Track Log - Related Links

Times and Time Zones

All times are in EDT time to prevent confusion due to time zone crossing. See the EJA829P flight status page for this flight to view local times or setup timezone preferences in your user account.

Time Position Orientation Groundspeed Altitude Reporting Facility
EDT Latitude Longitude Course Direction KTS MPH feet Rate Location/Type
Tue 11:58:42 AM 37.3422 -80.0903 348° North 185 213 6,900  Level Washington Center
Tue 11:59:42 AM 37.4125 -80.1050 351° North 193 222 11,000 3,620 Climbing Washington Center
Tue 12:00:43 PM 37.4869 -80.1225 349° North 235 270 14,200 2,727 Climbing Washington Center
Tue 12:01:43 PM 37.5672 -80.1483 346° North 267 307 16,500 1,983 Climbing Washington Center
Tue 12:02:44 PM 37.6561 -80.1694 349° North 302 348 18,200 2,017 Climbing Washington Center
Tue 12:03:00 PM 37.8764 -80.1404 348° North  Level FlightAware Approximate
Tue 12:03:42 PM 37.7625 -80.1758 357° North 335 386 20,500  Level Washington Center
Tue 12:04:00 PM 37.9577 -80.1620 348° North  Level FlightAware Approximate
Tue 12:04:43 PM 37.8622 -80.1844 356° North 347 399 22,500  Level Washington Center
Tue 12:05:43 PM 37.9600 -80.1906 357° North 347 399 23,800 744 Climbing Washington Center
Tue 12:06:44 PM 38.0681 -80.1969 357° North 360 414 24,000 101 Climbing Washington Center
Tue 12:07:42 PM 38.1742 -80.2036 357° North 372 428 24,000  Level Washington Center
Tue 12:08:43 PM 38.2700 -80.2094 357° North 380 437 24,000  Level Washington Center
Tue 12:09:44 PM 38.3719 -80.2158 357° North 380 437 24,000  Level Washington Center
Tue 12:10:44 PM 38.4781 -80.2225 357° North 380 437 24,000  Level Washington Center
Tue 12:12:48 PM 38.6994 -80.2294 359° North 385 443 24,000  Level Cleveland Center
Tue 12:13:48 PM 38.8036 -80.2342 358° North 380 437 24,000  Level Cleveland Center
Tue 12:14:48 PM 38.9097 -80.2444 356° North 375 432 24,000  Level Cleveland Center
Tue 12:15:48 PM 39.0078 -80.2653 351° North 370 426 24,000  Level Cleveland Center
Tue 12:16:48 PM 39.1017 -80.3050 342° North 355 409 24,000  Level Cleveland Center
Tue 12:17:48 PM 39.1894 -80.3367 344° North 345 397 24,000 -100 Level Cleveland Center
Tue 12:18:48 PM 39.2750 -80.3739 341° North 331 381 23,800 -650 Descending Cleveland Center
Tue 12:19:48 PM 39.3583 -80.4219 336° Northwest 326 375 22,700 -1,800 Descending Cleveland Center
Tue 12:20:48 PM 39.4439 -80.4728 335° Northwest 326 375 20,200 -2,400 Descending Cleveland Center
Tue 12:21:48 PM 39.5336 -80.5239 336° Northwest 340 391 17,900 -2,400 Descending Cleveland Center
Tue 12:22:48 PM 39.6211 -80.5778 335° Northwest 340 391 15,400 -933 Descending Cleveland Center
Tue 12:24:48 PM 39.8044 -80.6911 335° Northwest 340 391 15,100 -100 Descending Cleveland Center
Tue 12:25:48 PM 39.8897 -80.7453 334° Northwest 340 391 15,100  Level Cleveland Center
Tue 12:26:48 PM 39.9772 -80.8078 331° Northwest 345 397 15,100  Level Cleveland Center
Tue 12:27:48 PM 40.0625 -80.8625 334° Northwest 345 397 15,100 -300 Level Cleveland Center
Tue 12:28:48 PM 40.1481 -80.9200 333° Northwest 345 397 14,500 -850 Descending Cleveland Center
Tue 12:29:48 PM 40.2311 -80.9747 333° Northwest 345 397 13,400 -1,000 Descending Cleveland Center
Tue 12:30:48 PM 40.3144 -81.0297 333° Northwest 340 391 12,500 -1,000 Descending Cleveland Center
Tue 12:31:48 PM 40.3933 -81.0847 332° Northwest 335 386 11,400 -1,050 Descending Cleveland Center
Tue 12:32:48 PM 40.4681 -81.1369 332° Northwest 322 371 10,400 -1,000 Descending Cleveland Center
Tue 12:33:48 PM 40.5367 -81.1814 334° Northwest 293 337 9,400 -1,000 Descending Cleveland Center
Tue 12:34:48 PM 40.6031 -81.2311 330° Northwest 282 325 8,400 -950 Descending Cleveland Center
Tue 12:35:48 PM 40.6781 -81.2483 350° North 261 300 7,500 -1,000 Descending Cleveland Center
Tue 12:36:48 PM 40.7511 -81.2189 17° North 255 293 6,400 -1,050 Descending Cleveland Center
Tue 12:37:48 PM 40.8264 -81.1922 15° North 267 307 5,400 -1,000 Descending Cleveland Center
Tue 12:38:48 PM 40.8994 -81.1847 North 262 302 4,400 -1,000 Descending Cleveland Center
Tue 12:40:00 PM 40.9080 -81.3253 275° West  Level Estimated
Tue 12:47:00 PM 40.9151 -81.4436 275° West  Level Estimated
Tue 12:48:00 PM 40.9151 -81.4436 169° South  Level Estimated
Tue 12:49:00 PM 40.9151 -81.4436 169° South  Level Estimated
Tue 12:50:00 PM 40.9151 -81.4436 169° South  Level Estimated

Login

Don't have an account? Register now (free) for customized features, flight alerts, and more!